[[{"header":{"parameterUnit":"m.s-1","parameterCategory":1,"la1":30.2991,"la2":30.254,"lo1":-89.0895,"lo2":-89.0444,"dy":0.0017,"dx":0.0017,"nx":28,"ny":28,"refTime":"2024-08-03T09:00:00:Z","depth":0,"parameterNumber":2,"parameterNumberName":"U-component_of_WINDS"},"data":[0,0,0,0,0,0,0,0,0,0,0,0,0,0,0,0,0,0,0,0,0,0,0,0,0,0,0,0,0,0,0,0,0,0,0,0,0,0,0,0,0,0,0,0,0,0,0,0,0,0,0,0,0,0,0,0,0,0,1.8805,1.8804,0,1.8686,1.8684,1.8683,1.8613,1.8613,1.8612,1.8612,1.8485,1.8482,1.8479,0,0,0,0,0,0,0,0,0,0,0,0,0,1.8972,1.8969,1.8805,1.8804,1.8802,1.8686,1.8684,1.8682,1.8613,1.8613,1.8612,1.8612,1.8486,1.8483,1.8479,0,0,0,0,0,0,0,0,0,0,0,0,0,1.8881,1.8968,1.8806,1.8754,1.8748,1.8686,1.8684,1.8682,1.8613,1.8613,1.8612,1.8612,1.8488,1.8483,1.8478,1.8458,0,0,1.8464,1.8462,0,0,0,0,0,0,0,0,1.8886,1.8874,1.8763,1.8757,1.875,1.8664,1.8696,1.8607,1.8613,1.8664,1.8612,1.8612,1.8545,1.8535,1.8514,1.8452,1.8446,1.8464,1.8461,1.8459,1.8458,0,0,0,0,0,0,0,1.8892,1.8879,1.8758,1.8761,1.8754,1.8736,1.8722,1.8679,1.8608,1.866,1.8654,1.8641,1.8541,1.8518,1.851,1.8445,1.8464,1.846,1.8457,1.8455,1.8362,1.8362,0,0,0,0,0,0,1.8907,1.8885,1.8761,1.8754,1.8819,1.8733,1.8718,1.8692,1.8608,1.8595,1.8642,1.8638,1.8527,1.8516,1.8505,1.8477,1.8459,1.8455,1.8452,1.8362,1.8362,1.8363,0,0,0,0,0,0,1.8911,1.8897,1.8766,1.8818,1.88,1.8731,1.8702,1.869,1.8667,1.8595,1.8582,1.8631,1.8526,1.8512,1.8471,1.8471,1.8452,1.8448,1.8361,1.8362,1.8362,1.8419,0,0,0,0,0,0,1.8916,1.8899,1.889,1.8819,1.8798,1.8734,1.8702,1.8688,1.8659,1.8654,1.8582,1.8569,1.8524,1.8478,1.8466,1.8464,1.8445,1.8361,1.8362,1.8362,1.8416,1.8421,1.8425,0,0,0,0,0,1.8922,1.8909,1.889,1.8876,1.8786,1.8735,1.8722,1.8672,1.866,1.865,1.8605,1.8572,1.8474,1.8475,1.8461,1.8457,1.8361,1.8361,1.8362,1.8414,1.842,1.8425,0,0,0,0,0,0,1.898,1.8899,1.8876,1.884,1.8795,1.8723,1.8709,1.868,1.8636,1.8632,1.8571,1.8555,1.852,1.8485,1.8487,1.8434,1.8414,1.8412,1.8458,1.8463,1.8467,1.8476,1.8441,0,0,0,0,0,1.899,1.8956,1.8886,1.8861,1.8839,1.8779,1.8754,1.872,1.867,1.865,1.8601,1.8554,1.8512,1.8486,1.8444,1.8412,1.8395,1.8403,1.8407,1.8411,1.841,1.8392,1.8394,1.8365,1.8365,1.8365,0,0,1.9007,1.8958,1.894,1.8871,1.8832,1.8798,1.8763,1.8727,1.8702,1.8644,1.8603,1.8566,1.8509,1.8473,1.8455,1.8442,1.8415,1.8412,1.8416,1.8412,1.8393,1.8396,1.8398,1.8366,1.8365,1.8365,0,0,1.9021,1.8981,1.8956,1.8919,1.8861,1.8822,1.8816,1.8749,1.8723,1.8681,1.8638,1.8607,1.8536,1.8498,1.8469,1.8473,1.8441,1.8461,1.8483,1.8466,1.8468,1.847,1.8472,1.8473,1.846,1.846,1.846,0,1.9049,1.8997,1.8947,1.8915,1.8886,1.8836,1.8811,1.8777,1.8708,1.8689,1.8677,1.859,1.8547,1.8502,1.8504,1.8482,1.8474,1.8468,1.8472,1.8473,1.8474,1.8475,1.8476,1.8463,1.8463,1.8463,1.8462,0,1.9035,1.8999,1.8986,1.8924,1.8894,1.8865,1.8811,1.8787,1.8757,1.8718,1.8677,1.8626,1.8573,1.856,1.8529,1.8512,1.8506,1.8484,1.8462,1.8481,1.848,1.848,1.8467,1.8466,1.8465,1.8465,0,0,1.9078,1.8992,1.8988,1.896,1.8894,1.8866,1.8836,1.8787,1.8767,1.8722,1.8696,1.864,1.862,1.8587,1.8552,1.8537,1.8545,1.8517,1.8515,1.8524,1.8523,1.854,1.8541,1.8525,1.8525,1.8524,1.8528,0,1.9082,1.9027,1.8983,1.8944,1.8912,1.8866,1.884,1.8797,1.8762,1.8728,1.8689,1.865,1.8627,1.8607,1.8591,1.8548,1.8544,1.8547,1.8498,1.8497,1.8513,1.854,1.8557,1.8562,1.8528,1.8528,1.8528,0,1.9079,1.9039,1.8997,1.8938,1.8923,1.89,1.8853,1.8822,1.8773,1.8748,1.8715,1.8679,1.8645,1.8629,1.8582,1.8585,1.8563,1.8539,1.8538,1.853,1.8512,1.8533,1.8563,1.8564,1.8527,1.8527,1.8527,0,1.9115,1.905,1.9018,1.8995,1.8925,1.8911,1.8881,1.8832,1.8806,1.8765,1.8747,1.8702,1.8677,1.8643,1.8596,1.8588,1.8554,1.8533,1.8532,1.8534,1.8525,1.8526,1.8552,1.8514,1.8514,1.8514,1.8514,0,1.9123,1.91,1.9034,1.9013,1.8986,1.8936,1.8911,1.8876,1.8834,1.8806,1.8764,1.8739,1.8679,1.8646,1.861,1.8577,1.8566,1.8545,1.8535,1.8548,1.8551,1.8531,1.8529,1.8514,1.8514,1.8514,1.8514,0,1.9158,1.9113,1.9074,1.9013,1.8997,1.8979,1.8926,1.8905,1.8869,1.8835,1.8824,1.8767,1.8727,1.8677,1.8621,1.8596,1.8567,1.8553,1.8584,1.8578,1.858,1.858,1.8593,1.8592,1.8556,1.8556,1.8557,0,1.9165,1.9147,1.9084,1.9064,1.9036,1.9003,1.8977,1.8928,1.8903,1.8848,1.8834,1.8792,1.8754,1.8693,1.8646,1.8603,1.8587,1.8595,1.858,1.8594,1.8586,1.8588,1.8586,1.8598,1.8598,1.8599,1.8599,0,1.9184,1.9163,1.9128,1.9087,1.9058,1.9022,1.8985,1.897,1.8914,1.8888,1.8848,1.882,1.8764,1.8722,1.8674,1.8642,1.8611,1.8605,1.8602,1.8614,1.8633,1.8623,1.8593,1.8604,1.8603,1.8603,1.8603,1.8603,1.9204,1.9186,1.9141,1.9104,1.9071,1.9038,1.9016,1.8979,1.8945,1.8897,1.887,1.8831,1.8785,1.8718,1.8688,1.8656,1.8645,1.8641,1.864,1.8639,1.8643,1.864,1.8647,1.8647,1.8647,1.8647,1.8647,0,1.922,1.919,1.9157,1.9107,1.9079,1.9055,1.9013,1.899,1.8957,1.8918,1.8883,1.8838,1.8799,1.875,1.8707,1.8691,1.8676,1.8682,1.8681,1.8675,1.8656,1.8662,1.8695,1.8695,1.8695,1.8695,1.8695,1.8695,1.9225,1.9194,1.9169,1.9121,1.909,1.9053,1.9031,1.9001,1.8969,1.8921,1.8889,1.8859,1.8816,1.877,1.8733,1.8719,1.8705,1.8715,1.8697,1.868,1.8676,1.8672,1.8677,1.8712,1.8712,1.8718,1.8718,1.8718]},{"header":{"parameterUnit":"m.s-1","parameterCategory":1,"la1":30.2991,"la2":30.254,"lo1":-89.0895,"lo2":-89.0444,"dy":0.0017,"dx":0.0017,"nx":28,"ny":28,"refTime":"2024-08-03T09:00:00:Z","depth":0,"parameterNumber":3,"parameterNumberName":"V-component_of_WINDS"},"data":[0,0,0,0,0,0,0,0,0,0,0,0,0,0,0,0,0,0,0,0,0,0,0,0,0,0,0,0,0,0,0,0,0,0,0,0,0,0,0,0,0,0,0,0,0,0,0,0,0,0,0,0,0,0,0,0,0,0,-1.4389,-1.439,0,-1.4476,-1.4477,-1.4478,-1.4497,-1.4497,-1.4496,-1.4495,-1.4587,-1.459,-1.4593,0,0,0,0,0,0,0,0,0,0,0,0,0,-1.4242,-1.4244,-1.4388,-1.439,-1.4391,-1.4476,-1.4477,-1.4478,-1.4497,-1.4497,-1.4496,-1.4495,-1.4586,-1.4589,-1.4593,0,0,0,0,0,0,0,0,0,0,0,0,0,-1.4315,-1.4245,-1.4388,-1.441,-1.4413,-1.4475,-1.4477,-1.4478,-1.4497,-1.4497,-1.4496,-1.4495,-1.4585,-1.4589,-1.4593,-1.464,0,0,-1.4607,-1.4609,0,0,0,0,0,0,0,0,-1.4311,-1.432,-1.4406,-1.4409,-1.4412,-1.4475,-1.4459,-1.4533,-1.4498,-1.4466,-1.4495,-1.4494,-1.455,-1.4558,-1.4576,-1.4644,-1.4648,-1.4608,-1.461,-1.4612,-1.4614,0,0,0,0,0,0,0,-1.4306,-1.4317,-1.4423,-1.4407,-1.4411,-1.4417,-1.4427,-1.4473,-1.4512,-1.4468,-1.447,-1.448,-1.4552,-1.4572,-1.4578,-1.465,-1.4607,-1.4612,-1.4614,-1.4616,-1.4764,-1.4765,0,0,0,0,0,0,-1.4296,-1.4312,-1.442,-1.4426,-1.4358,-1.4421,-1.4431,-1.4456,-1.4512,-1.4519,-1.4481,-1.448,-1.4564,-1.4573,-1.4582,-1.4642,-1.4612,-1.4617,-1.4619,-1.4763,-1.4764,-1.4766,0,0,0,0,0,0,-1.4293,-1.4306,-1.4417,-1.437,-1.4384,-1.4424,-1.4452,-1.4458,-1.4478,-1.4521,-1.4528,-1.4493,-1.4564,-1.4575,-1.4626,-1.4646,-1.4619,-1.4623,-1.4762,-1.4763,-1.4765,-1.4763,0,0,0,0,0,0,-1.4289,-1.4305,-1.4322,-1.437,-1.4387,-1.4459,-1.4453,-1.446,-1.4485,-1.4486,-1.4535,-1.4542,-1.4564,-1.4619,-1.4631,-1.4651,-1.4626,-1.476,-1.4762,-1.4765,-1.4761,-1.4764,-1.4767,0,0,0,0,0,-1.4284,-1.4317,-1.4323,-1.4335,-1.4409,-1.446,-1.4469,-1.4493,-1.4487,-1.4505,-1.4533,-1.4541,-1.4641,-1.4624,-1.4637,-1.466,-1.4759,-1.4762,-1.4764,-1.476,-1.4764,-1.4767,0,0,0,0,0,0,-1.4271,-1.4324,-1.433,-1.438,-1.4415,-1.4463,-1.4487,-1.4496,-1.4534,-1.4533,-1.4562,-1.4573,-1.4622,-1.4646,-1.4626,-1.471,-1.47,-1.4706,-1.4692,-1.4696,-1.4699,-1.4693,-1.463,0,0,0,0,0,-1.4274,-1.431,-1.4355,-1.4395,-1.4412,-1.4446,-1.4469,-1.4485,-1.4522,-1.4537,-1.4569,-1.4606,-1.4647,-1.4672,-1.4712,-1.4764,-1.4777,-1.4787,-1.4789,-1.4791,-1.4796,-1.4829,-1.4834,-1.4775,-1.4775,-1.4775,0,0,-1.428,-1.4314,-1.4335,-1.4393,-1.4422,-1.446,-1.4459,-1.4498,-1.4527,-1.4544,-1.4594,-1.4619,-1.4662,-1.4715,-1.474,-1.4736,-1.4815,-1.4795,-1.4796,-1.48,-1.4832,-1.4838,-1.4843,-1.4777,-1.4776,-1.4776,0,0,-1.4312,-1.434,-1.4378,-1.4407,-1.4451,-1.4474,-1.4483,-1.453,-1.4547,-1.4598,-1.4612,-1.4647,-1.4715,-1.4746,-1.4771,-1.4817,-1.4826,-1.4829,-1.4844,-1.4875,-1.4879,-1.4884,-1.4902,-1.4908,-1.4833,-1.4833,-1.4833,0,-1.4315,-1.4372,-1.4396,-1.4436,-1.4462,-1.4479,-1.4518,-1.4546,-1.46,-1.4619,-1.4614,-1.4701,-1.4731,-1.4793,-1.4804,-1.4823,-1.4836,-1.4824,-1.4877,-1.4881,-1.4886,-1.4904,-1.491,-1.4833,-1.4833,-1.4833,-1.4833,0,-1.4375,-1.4415,-1.444,-1.4493,-1.4521,-1.4561,-1.4592,-1.4619,-1.4632,-1.4656,-1.4709,-1.4746,-1.4794,-1.481,-1.4823,-1.4874,-1.4871,-1.4871,-1.4862,-1.4891,-1.4909,-1.4916,-1.4834,-1.4833,-1.4833,-1.4833,0,0,-1.4401,-1.4468,-1.4477,-1.4502,-1.4552,-1.4584,-1.4625,-1.4672,-1.4695,-1.4732,-1.4769,-1.4827,-1.4828,-1.4856,-1.4874,-1.4901,-1.4938,-1.4898,-1.49,-1.4906,-1.4999,-1.5,-1.5007,-1.4944,-1.4945,-1.4946,-1.4996,0,-1.4441,-1.4514,-1.4538,-1.4599,-1.4638,-1.4654,-1.4691,-1.4726,-1.475,-1.4787,-1.4814,-1.4855,-1.4852,-1.487,-1.4897,-1.4927,-1.4957,-1.4924,-1.498,-1.4982,-1.497,-1.5016,-1.5017,-1.5062,-1.5003,-1.5004,-1.5005,0,-1.4497,-1.4536,-1.4601,-1.4649,-1.4666,-1.4697,-1.4744,-1.4778,-1.482,-1.4835,-1.4868,-1.4883,-1.4928,-1.4916,-1.4981,-1.4958,-1.4982,-1.5,-1.5003,-1.501,-1.4996,-1.5027,-1.5077,-1.5084,-1.5016,-1.5015,-1.5014,0,-1.4512,-1.458,-1.4629,-1.465,-1.4706,-1.4729,-1.4753,-1.4794,-1.4821,-1.4862,-1.488,-1.4926,-1.4951,-1.4986,-1.5015,-1.5003,-1.5077,-1.5067,-1.5093,-1.5093,-1.5109,-1.5108,-1.5166,-1.5122,-1.5122,-1.5122,-1.5121,0,-1.4555,-1.4595,-1.4637,-1.4667,-1.4713,-1.4741,-1.4786,-1.4811,-1.4848,-1.4885,-1.4902,-1.4936,-1.497,-1.5009,-1.5031,-1.5083,-1.5093,-1.5109,-1.5115,-1.5108,-1.5107,-1.5126,-1.5124,-1.5123,-1.5123,-1.5123,-1.5122,0,-1.458,-1.4609,-1.4664,-1.4713,-1.4727,-1.4759,-1.4801,-1.4832,-1.4857,-1.4903,-1.4916,-1.4955,-1.5003,-1.5034,-1.5094,-1.5109,-1.5166,-1.517,-1.5152,-1.5155,-1.5181,-1.5179,-1.5254,-1.5267,-1.5212,-1.5213,-1.5213,0,-1.4606,-1.4637,-1.469,-1.4716,-1.4741,-1.4781,-1.481,-1.4839,-1.4868,-1.4919,-1.4944,-1.4992,-1.5033,-1.5108,-1.5143,-1.519,-1.5196,-1.5219,-1.5203,-1.5197,-1.5199,-1.5198,-1.5202,-1.5222,-1.5223,-1.5223,-1.5224,0,-1.465,-1.4664,-1.4703,-1.4749,-1.4783,-1.482,-1.4858,-1.4878,-1.4914,-1.4946,-1.4994,-1.5026,-1.5088,-1.5137,-1.5187,-1.5214,-1.5226,-1.5228,-1.5237,-1.5232,-1.5221,-1.523,-1.5161,-1.5227,-1.5226,-1.5226,-1.5226,-1.5226,-1.4678,-1.4708,-1.475,-1.4795,-1.4826,-1.4861,-1.4893,-1.4922,-1.4963,-1.5016,-1.503,-1.5082,-1.5125,-1.5194,-1.5222,-1.5264,-1.5261,-1.5274,-1.5277,-1.528,-1.5282,-1.5213,-1.5273,-1.5273,-1.5273,-1.5272,-1.5272,0,-1.4725,-1.4753,-1.4794,-1.4846,-1.4882,-1.4889,-1.4932,-1.4961,-1.5006,-1.5045,-1.5085,-1.5142,-1.519,-1.5229,-1.5278,-1.5304,-1.5311,-1.5317,-1.5316,-1.5323,-1.528,-1.5268,-1.5311,-1.5311,-1.5311,-1.5311,-1.531,-1.531,-1.4754,-1.4805,-1.4824,-1.4892,-1.492,-1.497,-1.4994,-1.5027,-1.5059,-1.5122,-1.5162,-1.5186,-1.5226,-1.5279,-1.5324,-1.5335,-1.5353,-1.5358,-1.537,-1.5329,-1.5325,-1.5321,-1.5311,-1.5361,-1.5361,-1.541,-1.541,-1.541]}]]